Torna al catalogo

SCOUT B DEB

LostUNKNOWN
NORAD 29171·DEBRIS·🇺🇸 United States

Lanciato Aug 10, 1965 da Wallops Flight Facility

Loading…

Prossimi Passaggi (prossime 24 ore)

TLE

ObsoletoSource: Space-Track

Epoca: Nov 12, 2024, 04:50 UTC

1 29171U 65063V   24317.20139343  .00000780  00000-0  50887-2 0  9997
2 29171  69.1958 121.7373 0775186 168.1990  10.0787 11.87588469   473

Traccia SCOUT B DEB in tempo reale con AllMySat

Download on the App Store